Theta_e
307 307 307 309 314 312 311 313 313 316 322 324 323 317 311 316 326 320 313 314 312 306 304 305 305 304 306 307 307 307 307 306 306 306 306 306 305 305 305 305 305 305 304 302 301 301 301 302 302 303 304 305 308 312 315 316 317 317 318 319 319 319 319 318 318 318 317 318 318 319 319 319 318 318 318 317 317 317 317 316 316 316 315 315 315 315 315
308 308 308 309 313 312 310 310 309 312 319 318 316 315 310 311 315 313 310 311 307 304 304 304 304 305 304 304 305 306 306 306 305 305 305 305 305 305 305 305 305 305 304 302 301 302 302 302 302 302 303 303 304 306 310 312 315 316 316 317 317 318 319 318 318 318 318 319 319 319 319 318 318 318 318 318 318 317 318 317 316 316 316 315 315 315 314
308 308 310 309 312 315 314 310 308 309 313 312 311 310 308 310 310 305 306 309 305 303 303 303 303 302 301 301 302 303 304 305 305 304 304 304 304 304 304 304 305 305 304 303 302 303 302 302 303 303 303 303 303 304 305 307 310 312 314 316 317 317 318 318 319 319 318 319 319 319 319 318 318 318 318 318 317 317 318 317 317 316 315 314 314 315 314
309 307 309 309 310 312 311 312 312 312 312 312 310 307 307 311 310 306 309 311 305 303 303 302 300 300 300 300 300 299 300 302 302 302 302 302 301 302 303 303 304 305 304 303 303 303 303 303 303 303 304 304 303 304 304 305 306 307 309 311 313 316 318 318 319 319 318 318 317 318 318 317 317 317 317 317 317 317 318 317 317 316 315 314 314 315 314
309 306 308 309 310 311 312 312 310 308 307 308 308 306 305 306 306 309 313 310 304 304 303 300 300 299 299 299 299 299 299 299 299 300 300 300 299 299 300 301 303 304 304 303 303 304 304 303 303 303 304 304 304 303 303 304 304 305 305 306 308 313 315 317 317 317 317 317 317 317 317 317 318 317 317 317 317 318 318 317 316 316 315 315 315 314 314
310 307 308 310 313 315 312 307 304 306 306 307 307 306 304 303 303 306 307 304 302 303 301 299 299 299 299 299 298 298 298 298 298 298 298 299 299 298 298 299 299 299 300 302 302 302 303 302 301 302 303 303 304 304 304 304 304 304 304 304 305 308 311 313 315 315 316 317 317 317 318 317 317 317 317 317 317 317 317 316 316 316 316 315 315 316 315
312 308 309 311 313 312 307 303 303 305 304 303 303 302 301 302 302 302 302 302 302 302 300 299 299 297 297 297 297 297 298 297 298 297 297 298 298 298 299 299 297 297 298 299 299 300 302 301 300 301 301 302 303 303 304 304 304 304 304 304 304 304 306 308 310 312 314 316 318 318 318 317 317 317 316 316 317 317 316 316 317 317 317 317 317 317 317
310 309 311 312 309 305 303 302 302 302 302 303 305 305 302 301 302 301 302 302 301 301 301 300 300 298 297 297 296 296 297 297 298 298 297 298 298 298 297 297 296 296 296 297 298 298 300 300 299 300 300 300 301 302 302 303 304 304 303 304 304 304 304 305 306 308 310 313 315 316 317 316 316 316 317 316 316 317 317 318 318 318 318 317 317 316 316
309 311 310 308 306 305 304 303 302 301 302 303 306 307 302 300 301 301 301 301 300 301 300 300 301 301 301 301 298 295 296 297 297 297 296 296 296 296 295 296 296 296 296 297 297 297 298 298 298 299 299 299 300 301 301 301 303 304 304 304 304 304 304 304 304 305 307 309 312 314 315 315 315 316 317 317 316 317 318 318 317 316 316 317 316 316 316
307 312 310 308 311 312 308 305 303 302 301 300 304 307 303 299 301 300 300 301 301 301 301 300 301 302 303 304 301 297 296 297 296 295 295 295 295 295 295 296 296 296 297 297 297 297 297 297 298 298 298 298 299 300 300 300 301 303 303 304 304 304 304 304 304 304 306 308 310 311 313 314 315 315 316 316 316 317 317 316 315 315 315 315 315 315 315
306 313 315 312 313 311 305 303 303 302 301 301 304 308 305 300 298 298 298 301 301 301 301 302 303 305 306 307 304 299 296 296 295 295 295 295 296 296 296 296 296 296 297 297 297 297 297 297 297 297 298 298 298 298 299 299 300 301 302 303 303 304 303 304 304 304 305 306 307 308 309 310 311 311 310 311 312 312 312 312 312 313 312 312 312 313 313
308 311 312 308 307 305 301 301 303 301 299 300 305 311 308 300 297 297 298 300 301 300 301 302 305 306 306 305 302 298 295 295 295 296 296 296 296 296 296 296 296 296 296 296 297 297 297 297 297 297 298 298 298 298 298 298 299 300 301 301 302 302 303 304 304 303 303 304 306 307 307 307 307 307 307 307 307 308 308 308 308 309 310 311 311 312 312
310 312 311 306 304 303 300 300 301 299 298 301 307 310 304 297 296 297 298 299 300 299 300 302 302 302 302 301 299 296 295 295 295 296 296 295 295 295 295 295 295 295 295 295 296 296 297 297 297 297 298 297 298 298 297 298 298 299 299 300 301 301 302 303 304 304 303 304 305 306 307 307 306 306 306 306 306 306 306 306 305 306 307 308 309 310 311
306 307 309 306 305 302 299 299 299 299 302 306 305 301 298 297 298 297 297 298 298 298 299 299 298 299 300 300 298 296 295 295 294 294 294 294 295 294 294 295 294 294 294 294 295 295 295 296 296 297 297 297 297 298 297 297 298 298 298 299 300 300 301 301 302 303 304 304 303 304 305 306 307 307 306 306 306 306 306 305 305 304 304 304 305 306 307
303 305 307 309 307 301 297 298 299 301 303 303 299 296 297 299 299 298 298 298 298 298 298 298 298 299 299 299 298 297 296 294 293 293 293 293 293 293 293 293 293 293 293 293 293 293 293 294 294 295 296 296 297 297 297 297 298 298 298 298 299 299 300 300 301 301 303 304 303 303 304 305 305 306 306 306 307 306 305 305 304 304 304 304 304 304 304
305 309 307 304 301 297 297 299 300 300 300 299 298 298 298 299 300 300 299 299 298 298 298 298 298 298 299 298 297 296 296 294 291 292 293 293 293 293 292 292 292 292 292 292 292 292 292 292 293 293 294 296 296 296 297 297 298 298 298 298 298 299 299 300 300 301 302 303 303 303 303 303 304 304 304 305 306 307 306 306 305 305 305 305 304 304 303
301 304 301 298 297 297 298 299 299 299 299 299 301 301 299 299 300 300 299 299 299 298 297 297 298 298 298 297 296 295 295 293 291 291 292 291 291 291 291 291 291 290 290 291 290 290 291 291 291 292 293 294 295 295 296 296 297 297 297 298 298 298 299 299 299 300 301 301 302 302 303 303 304 304 303 303 304 306 306 306 306 306 305 305 304 304 304
298 299 298 297 298 298 298 299 299 299 300 299 300 300 300 300 300 298 298 299 299 299 298 297 298 298 297 296 295 294 293 291 290 290 290 290 290 290 290 290 290 289 290 290 290 290 290 290 290 290 291 292 293 294 294 294 295 295 296 296 297 297 298 299 299 300 300 301 301 302 302 303 303 303 304 303 303 304 304 304 304 304 305 305 305 304 304
299 300 298 297 298 297 297 298 297 297 298 298 298 299 299 299 299 298 298 299 298 298 298 297 297 297 295 295 295 294 293 291 289 289 289 289 289 289 289 289 289 289 289 289 289 289 289 289 289 290 290 290 291 291 292 292 293 293 293 294 295 296 297 298 299 299 299 300 301 301 301 301 302 302 303 304 304 303 303 303 303 303 304 304 305 304 304
299 298 297 297 298 298 299 299 297 297 298 297 298 298 298 298 298 296 295 295 295 295 295 295 296 296 295 294 294 293 292 290 288 289 289 289 289 289 289 289 289 289 289 289 289 289 289 289 289 289 289 290 290 290 290 290 291 291 292 293 294 295 297 298 298 299 299 299 300 301 301 300 300 301 302 302 302 302 303 303 303 302 303 304 303 303 304
296 295 296 297 297 298 299 299 299 299 299 297 297 298 298 298 298 296 293 292 293 294 293 292 293 295 294 292 291 292 291 289 288 289 289 289 289 289 289 289 289 289 289 289 289 289 289 289 289 289 289 289 289 289 290 290 290 291 292 293 294 296 296 297 298 299 299 299 300 300 301 301 300 300 300 299 299 300 301 302 302 302 302 303 302 303 303
298 298 298 297 298 300 299 298 299 299 299 298 298 298 299 299 299 297 296 293 292 292 292 291 291 294 294 291 289 290 290 289 288 289 289 289 289 289 289 289 289 289 289 289 289 289 289 289 289 289 289 289 289 289 289 290 291 292 293 294 295 296 296 297 297 298 299 299 299 300 300 301 300 300 300 299 299 299 300 301 301 302 302 302 302 302 301
299 299 298 297 298 300 298 297 299 299 297 298 299 299 300 300 296 294 295 295 294 293 293 291 291 291 291 290 289 288 288 289 290 290 289 289 289 289 290 290 289 289 289 289 289 289 289 289 290 290 290 290 290 290 290 290 290 291 292 293 294 294 295 296 297 297 298 299 299 300 300 300 300 300 299 299 299 300 300 301 301 301 301 301 301 302 302
297 297 298 298 298 298 297 298 300 297 294 296 299 299 298 296 294 292 292 294 294 294 293 292 291 291 290 290 289 288 288 290 290 290 290 290 290 290 290 290 289 289 289 289 289 289 290 290 290 290 290 291 290 290 290 290 290 290 291 292 292 292 293 294 295 296 297 298 299 299 299 299 299 299 299 299 299 300 300 301 301 301 301 301 303 304 304
297 299 300 299 298 298 296 295 296 295 292 294 297 297 295 293 293 292 292 292 292 292 292 291 291 291 290 290 290 289 289 290 290 290 290 290 290 290 289 289 289 289 289 289 290 290 290 290 290 290 291 291 291 291 291 291 290 290 290 291 291 291 292 292 293 294 296 297 297 298 299 299 299 299 299 299 299 298 299 300 301 302 301 302 303 304 304
297 298 299 297 297 297 295 294 295 295 294 294 295 295 294 294 293 293 292 292 292 292 291 291 290 290 290 289 290 289 289 290 290 290 290 290 289 289 289 289 289 289 289 289 290 290 290 290 290 291 291 291 291 291 291 291 291 291 290 290 291 291 291 292 292 293 294 295 296 297 298 298 298 298 298 299 298 297 297 299 301 302 302 303 303 303 302
298 299 298 296 296 296 296 296 296 294 293 293 293 293 293 294 294 293 293 292 292 292 291 290 289 290 290 289 289 289 290 290 290 290 289 289 289 288 289 289 289 289 289 289 290 290 290 290 291 291 291 291 291 291 291 292 291 291 291 291 291 291 291 291 292 292 293 294 295 296 297 298 298 298 298 298 298 297 297 299 300 301 301 302 302 301 301
298 298 296 297 298 298 296 295 294 293 292 293 292 292 292 292 292 292 293 292 292 292 290 289 289 290 289 289 289 289 290 290 289 289 289 288 288 289 289 289 289 289 289 289 290 291 291 291 291 291 291 291 292 292 292 292 292 292 292 291 291 291 291 291 291 292 292 293 294 295 296 297 298 298 298 298 298 297 297 298 299 298 298 298 299 298 298
298 297 296 296 295 294 293 294 294 294 293 292 292 292 292 292 293 294 294 292 291 291 290 289 289 290 289 289 289 289 289 290 289 288 288 288 289 289 289 289 289 289 290 290 291 291 291 291 291 291 291 292 292 292 292 292 292 292 292 292 292 292 291 291 291 291 292 292 293 294 295 296 297 297 297 297 297 297 297 297 298 298 297 297 297 297 296
297 296 297 297 293 291 294 296 296 296 294 292 291 292 291 291 294 296 294 291 290 290 290 289 289 290 290 289 289 289 289 289 288 288 288 288 288 289 289 289 289 290 291 291 291 291 291 290 290 291 291 291 291 292 292 292 293 293 293 293 292 292 292 292 292 291 292 292 293 293 294 295 296 297 297 296 296 296 296 296 296 297 297 297 297 297 294
297 296 297 298 295 294 297 297 296 296 295 292 292 294 293 293 294 296 294 291 289 289 290 289 289 290 290 289 289 289 288 288 288 288 288 288 288 289 289 289 289 290 291 291 291 291 291 290 290 291 291 291 291 292 293 293 293 293 293 293 293 293 293 293 292 292 292 292 292 293 293 294 295 296 296 296 295 295 295 295 295 294 295 295 296 295 294
297 296 296 297 296 295 297 297 296 297 296 294 294 295 294 293 294 295 294 293 291 290 290 289 289 290 290 289 289 288 287 287 288 288 288 288 288 289 289 289 290 291 291 291 291 290 290 290 290 291 291 292 292 293 293 293 293 293 293 294 294 294 294 294 293 293 292 292 293 293 293 294 295 296 296 296 295 295 295 295 295 294 294 295 295 294 293
298 297 297 297 296 296 297 296 296 296 296 295 293 293 291 291 291 291 291 291 290 290 290 290 290 290 289 288 288 287 287 287 287 287 288 288 288 288 288 289 290 292 293 292 291 290 290 291 291 292 292 292 292 293 294 294 295 295 294 294 294 294 294 294 294 293 293 293 293 293 293 293 295 296 296 296 295 295 295 296 296 294 293 294 295 293 291
298 298 297 297 296 296 296 297 296 296 296 294 291 290 290 291 290 290 290 290 289 290 291 290 289 289 288 288 287 287 286 287 287 287 288 288 288 288 288 289 291 294 293 292 292 292 292 292 292 292 293 293 293 293 294 295 295 296 295 295 295 294 294 294 294 293 293 293 293 293 293 293 294 295 295 295 294 294 293 293 293 292 291 291 292 291 290
294 294 293 292 292 292 293 294 295 295 296 296 294 291 291 291 291 291 290 290 290 291 290 289 288 289 288 287 287 287 286 286 287 287 287 287 288 287 287 289 292 294 294 293 293 293 293 293 293 293 293 293 293 293 294 294 295 295 295 295 295 294 293 293 293 293 293 293 293 293 293 294 294 295 295 295 293 292 291 290 290 290 290 290 290 290 290
292 292 292 292 292 293 292 292 293 293 293 293 292 291 291 292 292 291 290 290 290 290 289 288 288 289 288 287 287 286 286 286 286 287 287 287 287 287 287 288 290 290 291 292 292 293 293 293 293 293 294 294 293 293 294 294 294 294 294 294 293 293 292 292 292 292 293 293 294 293 293 293 293 293 294 293 291 290 291 290 289 289 290 290 289 289 290
292 293 294 293 294 294 293 293 294 294 293 292 292 292 292 291 291 290 290 290 290 289 288 287 288 288 288 287 287 286 286 286 286 286 287 287 287 287 287 287 288 287 287 289 291 292 292 293 294 294 294 294 293 293 294 294 294 294 293 293 293 292 292 292 292 293 293 293 293 293 292 292 292 291 291 291 289 289 289 290 289 289 290 290 290 290 291
294 294 294 295 294 294 294 295 294 294 294 294 293 293 291 291 290 290 289 289 289 289 288 287 288 288 288 287 287 286 286 286 286 286 287 287 287 287 286 286 286 285 286 287 289 290 291 293 294 295 295 294 294 294 294 294 294 293 293 293 293 292 292 292 292 292 292 292 292 292 291 291 291 290 290 290 289 289 289 290 290 290 290 291 291 291 291
293 294 294 294 294 295 295 295 294 294 294 294 293 292 292 291 290 289 289 288 289 289 288 287 287 288 288 287 287 286 286 285 285 285 286 286 286 287 287 287 286 286 287 288 289 290 292 293 294 295 295 295 294 294 294 295 294 294 293 293 293 292 292 292 292 292 292 291 291 291 291 290 290 290 290 289 290 290 290 290 290 291 291 291 291 291 291
291 293 294 294 294 295 294 294 294 294 294 294 294 293 292 291 290 289 288 288 289 288 288 287 287 287 287 287 286 286 285 285 285 285 285 286 287 287 287 287 288 288 289 290 291 291 292 293 294 294 295 295 295 295 295 295 295 294 294 293 293 292 292 292 292 291 291 291 291 290 290 290 290 290 290 290 290 290 291 291 291 291 292 291 291 292 292
291 293 294 294 294 295 295 294 295 294 294 294 294 293 292 291 289 289 288 288 288 288 288 287 286 286 286 286 286 286 286 285 285 285 285 286 286 285 285 286 287 289 289 290 291 292 293 293 293 293 294 295 295 296 295 295 295 295 294 294 294 293 293 292 292 292 292 292 291 291 291 291 291 290 291 291 291 291 292 292 292 292 292 292 292 292 292
291 292 293 292 293 294 294 294 294 294 294 294 294 294 292 291 289 289 288 288 288 288 287 287 286 286 286 286 286 286 285 285 285 285 285 285 285 284 284 285 287 288 289 290 291 292 292 292 292 292 293 293 294 295 295 295 295 295 295 294 294 294 294 293 293 292 292 292 292 292 292 292 292 291 291 292 291 291 291 291 291 291 291 292 292 292 291
292 292 292 291 293 294 294 294 294 294 294 294 294 294 292 290 289 289 288 287 287 287 287 287 286 285 285 285 286 286 285 285 285 285 285 285 285 285 285 286 287 288 288 289 290 291 291 291 292 292 292 293 293 294 295 295 294 294 294 294 294 293 293 293 293 293 293 292 292 292 292 292 292 291 291 291 290 290 291 291 290 290 291 291 291 290 290
292 292 292 292 293 294 294 294 294 293 293 294 295 293 292 290 290 289 288 287 287 286 287 287 286 285 285 285 285 285 285 285 285 284 285 285 285 285 285 286 286 287 288 289 289 289 290 290 291 291 292 292 293 293 293 293 293 293 293 292 292 292 291 291 291 292 292 291 291 291 291 291 291 291 290 290 290 290 290 290 289 290 290 290 289 289 289
292 293 294 293 293 293 293 293 294 293 294 294 294 293 292 290 290 289 288 286 286 286 286 286 286 285 285 284 285 285 285 284 284 284 284 284 284 285 285 285 286 286 287 288 288 289 289 290 290 291 291 292 292 292 292 292 291 292 291 291 291 290 290 289 289 289 289 289 289 289 289 289 289 289 289 288 288 288 288 288 288 288 289 289 289 289 289
292 294 294 293 293 293 294 295 295 294 294 293 293 292 292 290 289 289 288 287 286 286 286 286 286 286 285 284 284 285 284 283 283 284 284 284 284 284 285 285 285 286 286 287 288 288 288 289 290 290 291 291 291 291 291 290 290 290 290 290 290 289 289 289 288 288 288 288 287 287 287 287 287 287 287 287 287 287 287 287 287 287 287 288 288 288 287
293 293 293 293 294 295 295 295 294 293 292 291 291 292 292 291 290 289 288 287 286 286 285 285 286 286 285 285 284 284 284 283 283 284 284 284 284 284 284 284 285 285 286 286 287 287 288 289 289 289 290 290 290 290 289 289 289 289 289 289 289 288 288 288 288 288 287 287 287 287 287 287 286 286 286 286 286 286 286 286 286 286 286 286 286 286 285
293 294 294 295 295 295 294 293 292 292 292 292 293 294 294 293 290 289 288 287 286 286 286 286 285 285 285 285 284 284 284 284 283 284 284 284 284 284 284 284 284 284 285 286 286 287 287 288 288 289 289 289 289 289 288 288 288 288 287 287 287 287 287 287 287 287 287 287 287 286 286 286 286 286 286 286 285 285 285 285 285 285 284 284 284 284 284
294 294 294 294 294 294 293 292 291 292 292 293 294 295 295 293 290 289 288 287 286 286 286 286 285 285 285 284 284 284 284 284 284 283 284 284 283 283 284 284 283 284 284 285 286 286 286 287 287 288 288 288 288 288 288 287 287 287 286 286 286 286 286 286 286 286 286 286 286 286 286 286 286 285 285 285 284 284 284 284 284 284 284 283 283 283 283
293 293 293 293 293 293 293 292 292 293 294 295 295 295 294 292 289 289 288 287 286 286 287 287 286 285 285 284 283 283 284 284 284 283 284 284 284 283 283 283 283 283 284 285 285 285 286 286 286 287 287 287 287 287 287 287 286 286 286 286 286 286 286 286 286 286 286 286 286 286 286 285 285 285 284 284 283 283 283 284 284 284 284 284 283 283 282
292 292 293 293 294 294 294 294 294 295 295 295 295 295 293 292 291 291 290 288 287 286 286 286 286 286 285 284 284 283 283 283 284 284 284 284 284 283 282 283 283 283 283 284 285 285 285 285 285 286 286 286 286 286 286 286 286 285 285 285 285 285 285 285 285 285 286 286 286 285 285 285 285 285 285 284 284 284 284 284 284 284 284 284 283 282 282
292 292 293 293 293 294 294 294 295 295 295 295 295 295 294 293 292 291 289 288 287 287 287 287 287 287 286 285 285 284 283 283 283 283 283 283 283 283 282 282 283 283 283 283 284 284 284 284 285 285 285 286 285 285 285 285 285 285 285 284 284 284 284 283 283 284 284 284 284 284 284 283 283 283 283 283 284 284 284 284 285 285 284 283 283 282 282
Wind_Speed
6 5 6 5 6 5 5 5 4 4 6 6 5 3 0 3 5 4 4 7 6 1 5 6 6 6 5 6 6 6 7 8 9 11 12 12 11 11 11 10 10 10 9 10 14 19 22 24 25 25 24 21 17 14 12 9 7 3 1 6 11 15 18 20 21 22 21 21 20 19 18 20 22 22 21 19 16 15 18 19 20 19 14 9 12 12 8
7 8 8 7 6 6 6 7 6 5 8 8 6 3 2 5 5 5 10 12 6 1 2 4 5 5 4 5 6 8 10 9 10 12 11 10 9 9 9 9 9 9 9 11 16 20 23 25 25 25 25 24 21 17 13 10 9 7 4 2 6 10 13 16 18 20 20 20 21 21 21 22 24 24 22 20 19 18 21 22 23 21 16 15 18 17 13
4 5 5 6 7 7 6 7 7 6 9 9 6 3 4 7 7 5 10 12 6 1 2 4 5 4 5 9 10 10 9 8 10 12 11 10 9 8 8 8 8 8 9 13 17 19 21 23 24 25 25 26 25 22 18 14 11 8 6 3 5 8 11 13 15 17 19 20 22 24 25 26 27 26 24 23 22 22 25 25 24 22 21 24 26 24 21
2 1 3 6 9 9 6 4 5 6 5 5 4 3 2 3 6 7 7 7 4 1 2 4 4 5 8 11 10 9 8 8 10 11 10 9 9 8 8 8 8 8 9 11 14 16 18 20 23 24 24 26 27 25 23 19 14 10 7 5 1 6 10 12 13 15 18 19 20 21 20 20 22 23 22 22 23 25 28 27 23 21 22 25 26 26 27
4 3 4 5 8 7 2 1 0 2 3 5 5 4 5 3 4 7 5 4 5 4 4 4 5 7 9 9 7 6 6 7 8 9 8 8 7 7 7 7 8 7 8 11 13 15 17 18 20 21 22 24 24 24 24 22 18 15 12 9 5 3 7 10 10 11 14 17 18 19 20 20 20 20 20 21 25 28 27 25 21 19 21 24 25 25 26
5 4 1 3 4 3 2 4 3 3 4 7 7 4 3 4 2 3 4 5 6 5 5 6 7 7 7 6 5 5 5 5 7 7 7 7 6 7 7 7 7 9 10 13 15 16 17 19 20 21 22 22 21 21 21 22 21 20 19 16 13 8 5 9 11 9 10 14 16 18 20 21 21 22 23 23 24 25 23 20 18 17 19 21 22 23 22
5 2 3 4 2 4 3 5 2 4 5 8 11 7 4 5 5 5 7 8 7 6 6 6 7 7 7 6 6 6 5 5 5 6 6 6 6 6 6 6 8 11 14 15 17 17 17 18 20 21 21 21 20 20 20 19 19 19 20 21 20 17 13 8 7 8 10 13 14 16 18 18 20 22 23 22 21 21 20 19 18 17 18 19 19 19 18
3 3 3 4 4 4 3 4 3 4 4 5 8 7 4 4 4 4 6 6 4 5 5 4 5 5 5 6 6 6 6 5 5 6 5 5 5 5 6 7 10 13 15 15 16 17 16 17 18 19 19 19 18 19 19 19 18 16 17 19 20 20 19 16 12 8 7 11 14 16 17 16 17 19 21 21 20 19 20 20 18 17 17 17 17 15 14
4 4 2 0 2 3 1 1 1 1 1 0 3 4 0 2 2 1 5 5 3 3 2 2 3 3 3 4 4 4 5 5 4 4 4 4 5 7 9 11 13 14 15 16 16 17 16 17 18 18 17 17 17 17 17 18 17 15 14 16 17 18 18 17 17 13 8 7 10 14 16 16 16 18 19 20 20 20 20 19 17 16 15 15 14 12 11
3 5 3 2 3 2 4 4 3 1 0 2 4 5 1 2 2 1 4 5 2 2 2 1 1 3 3 2 2 3 3 3 3 3 4 5 6 8 11 13 15 16 17 17 18 18 17 17 18 19 18 18 17 17 16 16 15 15 13 12 12 14 15 16 16 13 8 5 3 7 9 10 11 13 14 15 16 16 17 16 14 13 13 13 13 13 13
2 5 4 2 2 3 4 5 4 4 1 3 4 5 1 3 0 2 4 4 2 1 2 2 3 4 2 2 4 3 2 3 3 3 4 6 7 8 10 12 14 15 16 17 18 19 19 19 19 19 19 19 18 17 17 16 14 14 12 10 10 12 12 13 13 11 9 6 2 4 8 10 11 12 13 14 14 15 16 16 17 16 15 15 15 15 14
2 4 3 2 3 2 2 3 5 5 1 5 6 2 4 3 2 2 3 4 3 2 0 2 4 4 3 3 4 3 1 4 4 4 5 7 8 9 10 13 13 13 14 15 16 18 19 19 20 20 20 20 20 19 19 17 15 14 13 13 13 13 13 11 9 7 8 8 3 3 7 11 13 14 14 14 15 16 16 17 17 17 16 16 16 15 14
2 3 2 0 2 3 2 4 6 3 3 4 3 4 6 2 2 2 4 4 3 2 1 2 2 2 3 3 3 4 4 5 6 6 8 9 10 10 12 14 15 15 15 15 15 17 18 19 20 20 20 20 20 20 20 19 17 15 15 15 15 14 14 13 10 7 5 6 4 2 4 6 9 12 14 15 15 14 15 16 16 17 17 16 16 15 13
2 3 3 1 2 3 1 3 6 2 3 3 4 5 4 3 3 3 3 4 4 3 2 2 2 3 4 3 4 5 4 4 5 8 10 12 14 15 15 16 17 18 18 19 18 19 20 21 21 21 20 20 20 20 20 21 19 18 17 17 17 16 15 14 13 11 8 4 2 4 6 6 7 8 10 12 14 14 14 15 16 16 16 15 14 12 11
2 3 3 2 2 2 3 2 3 2 2 4 4 2 2 2 2 1 1 2 3 3 1 1 2 3 4 4 4 5 5 5 7 10 12 14 16 18 19 18 19 19 19 20 20 21 21 22 22 21 20 20 20 19 20 21 20 20 20 18 18 18 17 15 15 13 12 10 6 2 5 5 5 6 7 9 12 13 15 15 16 16 14 12 11 10 8
2 2 1 2 3 4 4 1 2 2 2 4 4 3 2 1 1 1 1 3 2 1 1 3 2 2 3 3 3 5 5 6 9 12 14 15 17 19 21 22 23 22 21 21 22 22 22 21 21 21 19 19 20 20 21 21 20 21 21 20 19 19 18 17 16 15 15 14 13 10 7 5 5 5 5 7 10 13 14 14 15 15 13 12 10 9 7
2 2 2 3 1 3 4 4 4 3 4 3 3 4 2 0 1 1 1 2 2 1 1 3 4 3 3 4 4 4 4 4 6 9 11 14 16 18 20 22 24 23 23 23 24 25 24 21 19 19 18 18 19 22 22 22 23 23 23 23 23 21 19 18 17 16 16 17 17 16 13 12 12 11 9 8 9 12 14 14 14 14 13 12 11 10 9
3 4 3 2 1 1 2 4 3 3 3 2 2 4 2 2 1 1 2 1 1 1 1 1 3 3 3 4 4 4 4 5 7 9 12 13 15 17 18 20 21 22 23 23 24 25 27 26 22 20 19 18 20 23 25 25 26 26 25 25 25 24 22 19 17 17 17 17 17 18 17 15 15 15 14 12 10 10 11 12 13 13 14 14 14 13 12
2 2 1 1 1 1 1 2 2 2 2 2 3 3 3 3 2 2 2 2 1 0 1 1 4 4 3 3 5 5 4 5 8 11 13 15 17 17 18 20 20 20 21 21 21 23 26 27 26 24 23 22 22 23 24 25 26 27 26 26 25 25 24 22 19 18 18 18 17 17 20 20 18 16 15 15 16 19 19 18 18 19 19 19 18 17 16
1 2 3 1 1 2 2 0 2 2 1 2 2 2 2 3 3 2 2 2 2 1 2 3 3 3 3 3 4 5 5 6 9 12 14 16 19 20 20 21 20 19 19 20 22 23 24 25 25 26 27 27 26 25 24 23 23 25 27 26 25 24 25 24 22 20 19 19 17 16 19 23 22 20 20 18 18 21 25 26 26 25 24 23 21 19 18
3 1 1 1 4 4 5 3 2 3 2 2 1 2 2 2 2 3 3 3 3 4 4 4 3 2 4 5 5 5 5 6 9 13 15 18 20 21 22 22 21 21 22 23 24 24 24 23 24 25 27 28 28 27 25 24 22 23 25 25 24 24 23 23 22 20 18 18 17 15 16 19 22 23 25 25 22 22 24 24 22 21 21 20 19 18 18
1 2 4 4 3 1 5 5 4 4 3 3 2 1 0 1 2 3 4 3 2 4 5 4 3 2 5 6 6 6 6 8 12 15 18 19 20 21 23 23 23 23 23 24 25 25 25 24 24 25 26 27 27 27 26 24 23 22 23 23 23 23 22 20 20 18 16 16 16 14 12 13 15 17 20 21 21 22 23 22 20 20 18 16 16 17 17
4 5 6 6 4 1 4 5 4 4 3 4 4 3 3 3 2 3 4 3 1 2 3 4 4 4 6 9 9 7 8 13 15 17 18 19 20 22 23 23 23 23 23 24 25 26 26 26 26 26 27 27 27 27 26 24 23 24 23 23 23 24 23 21 20 18 16 14 13 12 10 9 10 11 13 13 15 19 21 21 20 19 16 14 15 16 16
1 3 5 5 4 2 3 4 4 3 3 5 3 4 3 3 2 2 4 4 3 3 3 5 7 8 10 12 11 8 10 15 16 17 19 20 20 21 22 21 22 22 23 23 24 25 26 26 27 27 28 28 27 27 27 26 25 26 26 25 25 25 24 24 22 20 17 14 13 13 13 11 10 11 12 11 10 10 12 15 17 18 16 15 15 15 15
1 2 5 5 4 3 3 2 1 1 2 5 3 3 3 3 4 5 5 5 5 4 4 6 9 10 10 11 12 11 13 15 17 18 19 20 20 20 21 21 22 22 22 23 24 24 25 26 27 27 28 29 28 27 27 27 26 27 27 27 27 26 25 25 24 22 19 17 14 14 15 15 14 14 13 12 11 9 6 7 11 16 17 16 14 14 16
2 4 5 4 3 2 2 2 1 1 3 4 3 3 4 5 6 8 8 6 6 6 6 7 8 10 10 10 12 13 14 15 17 18 18 18 19 20 20 21 22 22 23 24 25 25 26 27 28 27 28 29 29 28 27 27 27 27 28 27 28 28 26 25 25 24 22 20 17 15 15 16 18 18 15 15 15 14 10 8 9 11 13 13 12 13 15
3 4 5 4 2 2 1 2 3 4 6 6 6 6 6 5 6 8 8 8 8 7 6 6 7 8 9 10 11 12 13 15 16 16 16 17 18 19 20 21 22 22 23 23 25 26 27 27 27 26 27 29 29 27 27 26 27 28 28 27 27 27 27 26 26 26 25 22 19 17 15 16 18 19 19 18 17 16 14 14 15 15 14 15 15 15 15
1 2 3 3 2 4 4 3 4 5 5 7 8 8 6 6 6 6 6 7 8 8 8 8 7 7 9 10 11 11 12 13 14 14 16 17 18 19 20 21 21 21 21 22 24 25 25 25 25 25 27 29 28 26 25 25 25 27 28 27 27 26 26 26 26 27 27 25 22 20 18 16 16 17 20 22 21 19 17 16 17 18 18 18 18 16 14
3 2 1 2 4 3 3 3 3 4 4 6 7 7 5 4 3 2 4 7 7 6 8 10 9 9 9 10 10 10 11 12 12 15 16 17 19 20 20 19 19 19 19 20 22 24 24 25 25 26 28 29 28 26 25 23 23 24 26 26 26 25 25 25 25 26 26 26 24 22 21 19 17 16 17 20 22 22 22 21 20 20 20 21 20 18 17
3 0 1 0 2 4 4 4 3 4 4 5 5 5 4 3 3 3 5 7 7 7 9 11 10 9 10 10 9 10 11 13 14 16 17 18 19 19 18 17 16 17 18 20 22 24 26 26 26 27 29 30 28 26 24 22 22 22 23 24 25 25 25 25 24 24 25 25 25 24 23 22 20 18 17 18 20 21 22 23 23 23 24 24 22 22 23
3 3 3 2 3 4 4 4 4 4 4 3 2 3 2 2 3 5 5 5 6 8 10 10 9 9 10 10 9 10 12 13 14 15 15 17 18 17 16 14 13 14 17 20 22 24 26 27 27 28 30 30 29 26 23 21 20 21 21 23 24 25 25 25 24 24 24 24 24 24 24 23 23 21 19 18 20 21 22 23 23 23 24 25 24 25 27
4 3 3 2 2 2 3 3 3 4 3 2 2 3 4 4 5 6 6 6 7 9 9 8 8 9 9 8 9 11 12 12 12 13 14 16 17 17 15 13 12 12 15 18 20 23 25 26 28 31 32 31 29 25 21 17 16 17 19 22 23 23 24 24 24 24 24 23 23 23 24 24 24 24 22 21 22 23 24 26 25 24 25 26 26 26 29
4 0 2 1 2 2 3 3 4 4 4 4 4 6 8 8 7 8 9 9 10 10 9 7 7 7 7 8 9 11 11 11 11 13 15 16 17 17 16 13 12 13 15 17 20 23 25 26 30 33 33 30 28 24 19 14 13 12 13 16 20 21 21 22 23 24 22 22 22 22 23 23 24 25 24 23 23 24 25 27 28 27 25 26 27 28 29
6 5 5 5 4 4 5 4 4 4 4 5 6 8 9 9 9 10 11 10 9 8 6 5 5 5 5 8 10 10 10 9 8 11 15 16 17 17 17 14 13 13 14 18 22 25 26 27 29 31 31 29 27 24 19 16 15 15 13 10 10 14 16 17 20 21 20 20 20 20 20 21 23 23 23 22 21 22 21 23 26 27 26 25 27 30 29
7 5 4 5 5 5 6 6 5 5 5 4 5 7 9 10 10 9 9 8 6 4 2 2 2 3 6 9 10 11 11 9 8 11 14 15 15 17 16 15 15 16 17 20 23 25 25 26 26 27 28 28 27 24 20 18 17 16 16 13 5 4 9 12 16 17 17 17 17 17 18 19 19 19 20 19 19 21 20 18 18 24 29 29 27 29 29
8 4 3 5 5 5 6 7 7 7 7 6 7 8 10 10 9 7 6 6 3 2 1 0 1 3 6 9 9 10 10 10 10 12 13 13 14 15 15 16 19 20 20 21 23 24 24 24 25 25 26 27 27 25 22 20 19 18 17 16 13 9 9 10 12 13 12 13 14 15 15 16 16 16 17 17 17 20 22 18 13 18 28 31 29 28 27
9 8 6 6 6 6 6 7 8 8 8 8 8 9 9 9 6 4 4 4 2 2 1 0 2 3 5 6 7 8 9 9 10 11 11 11 11 13 14 18 20 19 17 19 22 24 23 23 23 24 24 25 26 25 23 22 22 22 21 20 18 16 15 14 13 12 11 12 13 14 15 15 15 15 16 17 17 19 23 22 17 19 27 31 29 27 25
9 8 7 7 7 8 7 6 6 6 6 6 7 8 8 7 5 4 4 4 3 2 1 1 2 2 2 4 6 8 10 10 10 10 10 10 10 11 14 17 18 17 16 17 20 22 21 21 21 22 22 23 24 24 24 23 24 24 25 24 23 21 20 18 17 16 15 14 15 16 17 17 18 18 18 19 20 21 23 25 25 25 27 29 27 25 23
6 6 7 7 7 8 8 7 6 5 4 5 7 8 7 7 6 5 5 5 4 2 1 1 1 1 1 1 4 7 9 10 11 11 11 10 10 10 11 13 15 16 15 15 17 19 19 19 19 20 21 21 22 23 25 25 25 25 25 26 25 25 24 23 22 21 20 19 19 19 19 20 21 22 22 22 23 23 24 26 26 26 27 27 25 23 21
7 8 8 8 8 9 9 8 8 7 5 5 7 8 8 7 8 6 5 5 5 3 2 1 1 1 2 1 2 5 7 9 11 11 11 12 13 13 13 14 16 16 15 15 16 17 17 18 19 19 20 20 19 20 22 24 25 26 26 26 26 26 26 25 25 24 23 23 23 23 23 23 23 23 24 25 25 25 25 25 25 25 25 24 22 21 19
9 9 9 9 10 11 10 9 9 8 7 7 8 9 7 7 8 7 6 5 4 4 3 2 2 2 1 1 1 3 5 6 9 10 11 13 14 14 12 14 16 17 16 15 16 16 16 17 18 18 18 18 18 17 18 20 22 24 25 25 25 26 26 26 26 25 25 25 25 25 25 26 25 25 25 25 25 24 24 23 22 22 22 21 20 18 17
10 10 9 10 11 11 11 11 10 9 9 9 10 9 6 7 8 7 6 5 4 4 4 3 3 3 2 2 1 2 3 4 5 8 9 10 11 11 11 13 15 16 15 15 15 15 15 16 17 17 16 16 16 16 16 17 19 21 22 23 23 24 24 24 24 24 24 24 25 24 24 25 24 24 24 23 22 22 21 21 21 20 20 19 18 17 17
12 12 10 11 12 13 13 13 11 10 11 11 11 9 6 8 8 7 6 5 4 5 5 4 3 3 3 3 2 1 2 3 3 4 5 6 8 9 10 12 13 14 13 13 14 15 15 16 16 15 15 14 14 14 15 17 18 19 20 21 22 22 23 23 23 22 22 22 23 23 22 22 22 22 22 22 21 20 20 20 20 19 19 18 18 19 20
14 14 13 13 14 14 14 13 12 11 12 12 10 7 7 10 9 7 7 6 5 5 6 6 4 3 3 3 3 1 1 3 3 3 4 5 7 8 9 10 11 12 12 13 13 14 15 15 15 14 13 13 14 14 16 17 18 19 20 21 21 22 22 22 22 22 21 21 21 21 21 21 21 21 22 21 21 20 20 20 20 19 19 19 20 20 20
14 15 16 16 15 14 14 14 14 13 13 11 8 6 8 11 11 9 8 7 6 6 7 7 6 4 3 3 2 1 1 3 3 4 4 5 6 7 9 10 10 10 10 11 12 14 15 14 14 13 13 14 14 15 17 18 19 20 20 21 22 22 22 23 22 22 22 22 21 21 21 22 22 22 22 22 22 22 21 21 20 20 20 19 19 18 18
15 17 17 16 15 15 16 17 17 16 13 9 6 6 8 11 12 11 9 8 6 5 5 7 7 6 4 3 2 2 1 2 3 4 4 4 4 6 7 8 9 9 9 10 11 13 13 13 13 13 13 14 15 16 18 19 19 20 21 21 21 22 23 23 23 23 23 23 23 23 23 23 23 23 22 22 22 22 21 21 20 19 18 17 17 16 15
15 15 15 16 17 18 18 17 15 13 10 8 8 8 9 12 14 14 11 9 7 5 3 4 6 6 5 4 3 2 2 2 3 3 3 3 3 4 6 7 7 8 9 10 11 12 12 12 12 12 13 14 15 16 18 18 19 19 20 20 21 21 22 22 22 22 22 22 22 22 22 22 22 21 21 20 20 19 18 18 17 16 15 14 13 12 11
16 16 16 18 19 18 16 13 12 11 12 13 13 13 11 11 14 15 13 11 10 8 5 4 5 6 7 6 4 4 3 2 2 2 1 2 3 3 5 6 7 7 7 9 10 11 11 11 11 12 12 13 15 16 17 18 19 19 19 19 19 19 20 20 19 19 19 19 19 20 19 19 18 17 17 16 15 14 13 13 12 11 10 9 8 7 7
19 18 17 16 16 15 13 12 12 13 15 17 17 16 13 11 13 16 16 15 13 11 9 6 5 6 7 7 6 6 6 5 3 1 1 1 3 4 4 5 6 6 6 7 9 10 11 11 11 11 12 13 15 16 17 17 18 18 18 19 19 19 20 20 20 20 20 20 20 20 20 19 18 17 17 16 16 15 14 14 13 12 10 9 9 7 6
17 16 15 14 15 15 15 15 15 16 18 19 18 16 13 11 13 16 19 18 16 14 12 10 8 7 7 7 7 7 8 7 5 3 3 1 2 3 3 3 4 5 6 6 7 8 9 10 10 11 12 13 14 15 16 16 17 18 18 19 19 20 20 20 20 20 21 21 20 20 19 18 18 17 17 18 18 17 17 16 15 14 12 11 10 9 8
16 16 17 19 19 19 19 18 19 20 20 20 18 17 14 13 14 17 20 21 20 17 15 14 12 10 9 8 8 8 9 9 7 6 4 3 2 3 2 1 2 3 4 5 6 7 8 8 9 10 11 12 13 14 15 15 16 17 18 19 20 20 20 20 19 18 18 18 18 18 17 16 16 16 16 15 15 15 15 14 13 12 11 11 11 10 10
19 20 21 20 19 19 18 19 20 20 20 19 18 17 17 16 16 16 18 20 22 21 19 18 16 14 13 12 10 9 9 10 10 8 6 4 3 2 1 1 0 1 4 6 7 7 8 8 9 9 10 11 12 13 13 14 15 16 16 17 17 18 19 19 19 18 17 17 16 16 16 15 15 15 15 14 13 13 12 12 11 11 10 11 11 12 11
Wind_Direction
28 20 0 21 75 72 35 32 46 60 48 52 88 104 329 121 130 184 171 101 92 340 329 342 344 353 11 25 36 49 52 49 54 58 54 48 42 39 38 34 31 32 27 20 22 25 27 29 32 35 38 40 43 47 50 50 50 53 218 220 216 215 215 215 217 219 220 220 221 221 217 211 207 206 205 195 190 200 208 204 194 183 180 198 209 215 251
31 21 10 26 66 73 44 19 11 62 78 73 78 75 51 75 90 128 120 101 88 353 337 350 345 348 16 51 56 56 54 53 59 63 60 53 46 42 39 36 35 36 32 29 29 27 27 27 28 31 34 35 38 40 43 48 52 55 63 150 197 205 211 216 219 219 218 216 215 214 210 201 195 196 195 188 190 205 211 203 193 190 203 224 223 223 247
28 16 30 51 73 85 71 30 6 32 73 73 65 67 82 80 75 89 104 100 89 22 15 22 4 1 51 63 57 53 51 50 58 62 58 51 44 37 34 34 32 33 34 33 32 30 28 26 27 30 32 35 40 40 37 38 40 43 50 89 164 182 194 206 213 212 209 208 208 207 204 197 192 191 194 198 202 206 206 200 198 207 220 223 223 226 229
162 186 123 115 100 89 78 48 7 10 51 78 71 49 57 102 131 127 104 103 123 137 72 50 30 42 62 60 54 54 52 48 55 60 57 51 45 36 32 30 28 28 28 29 28 27 27 27 28 29 30 34 38 38 37 36 34 36 32 16 292 197 196 201 206 205 199 196 195 195 191 185 182 184 192 203 207 202 199 202 209 219 219 212 214 221 219
169 197 172 134 102 93 83 292 13 65 98 114 95 42 12 26 139 148 142 157 169 150 113 94 68 60 63 59 51 52 53 50 55 59 57 52 47 40 36 33 31 28 25 27 26 23 23 25 26 25 27 32 34 34 37 40 42 47 43 26 359 276 235 227 224 212 198 188 184 186 186 184 188 200 212 220 214 206 206 213 220 222 215 210 213 220 223
162 201 209 66 87 138 235 281 251 177 146 126 112 86 11 16 61 131 129 129 130 121 116 113 96 81 76 70 60 57 59 57 55 53 51 47 42 38 34 31 29 25 23 27 27 27 27 24 22 23 24 26 29 29 33 39 44 46 46 42 34 16 316 266 256 245 215 195 186 188 192 194 200 214 225 226 215 209 213 216 214 210 209 211 216 222 227
146 160 68 85 191 233 286 318 313 129 122 116 109 94 42 32 56 89 100 108 123 130 132 127 115 108 102 87 67 52 49 56 61 55 42 34 34 30 25 23 19 16 18 21 20 23 28 26 22 21 19 18 21 24 25 30 35 37 39 41 39 34 25 354 298 272 242 219 207 205 208 208 208 215 223 224 216 212 214 212 209 207 209 215 222 229 234
136 115 99 154 225 276 356 12 37 96 101 94 91 78 29 10 32 81 104 107 120 132 142 156 144 128 107 82 64 49 39 39 51 56 41 27 27 22 15 14 10 9 12 15 14 16 22 26 24 19 14 12 14 18 18 18 22 26 31 35 34 30 30 27 13 341 280 243 231 228 225 220 216 221 226 226 220 214 209 206 207 212 216 223 229 232 233
133 124 125 141 353 354 63 95 357 84 69 33 114 112 81 328 359 97 122 111 104 123 142 223 206 157 89 55 39 30 32 32 33 35 26 18 15 11 10 11 10 9 9 8 9 9 11 17 19 15 10 5 4 7 7 7 10 11 17 27 28 24 25 26 22 11 339 279 245 236 234 232 231 229 226 220 215 211 208 209 213 218 218 218 218 215 210
105 102 91 44 25 299 222 210 246 318 336 205 152 116 109 296 335 63 128 122 113 109 78 333 181 133 96 39 323 325 3 18 15 6 359 3 10 10 10 9 7 7 7 2 0 0 1 3 6 6 3 359 357 359 360 359 359 357 0 12 18 17 19 19 19 18 7 338 270 221 215 215 214 209 200 196 195 195 196 195 192 191 189 185 184 184 183
107 111 125 160 187 231 224 215 261 301 261 179 110 81 244 241 40 69 120 128 143 107 44 31 82 103 113 245 258 268 327 350 342 334 335 349 5 10 11 9 4 2 2 357 354 355 356 355 354 353 351 350 349 350 352 352 351 349 347 345 348 353 0 6 13 23 26 14 337 192 165 156 159 161 158 156 157 159 162 162 160 163 167 168 168 171 176
117 116 135 189 201 232 236 237 272 290 175 120 93 99 244 233 98 98 131 144 173 185 86 36 69 105 162 219 250 265 339 346 332 335 342 348 358 4 6 6 2 360 358 354 352 351 350 347 345 343 343 341 337 336 338 338 341 345 340 326 322 326 328 336 348 8 30 35 26 203 176 161 159 161 158 152 150 151 151 150 151 155 160 164 167 171 177
76 102 116 329 260 248 246 267 283 292 117 114 133 206 226 199 106 134 148 161 187 181 122 65 91 168 215 239 292 321 352 346 332 342 348 348 353 359 0 360 358 355 352 349 346 342 340 337 335 335 337 334 329 327 326 322 324 335 336 324 316 313 310 310 312 317 355 34 51 137 189 184 173 169 168 165 161 160 157 154 151 152 154 157 159 161 166
54 107 112 64 274 260 290 296 294 315 122 166 210 214 207 170 151 158 157 176 191 173 136 139 169 238 283 312 327 331 340 332 329 342 349 351 352 353 353 354 353 349 343 339 335 332 331 330 328 330 331 327 323 322 317 312 313 321 325 323 318 312 304 298 295 293 296 321 30 112 149 180 185 174 171 174 174 171 167 164 160 157 154 151 146 143 143
71 71 72 89 215 274 332 320 308 8 119 183 190 152 140 157 157 162 193 212 198 163 131 203 215 254 297 314 323 331 337 338 341 347 351 351 346 343 343 343 342 340 333 328 324 322 322 322 322 324 325 320 317 315 309 306 309 315 317 317 316 313 306 298 291 282 276 279 284 202 151 166 186 182 176 182 183 178 173 170 166 160 155 149 142 136 134
103 113 127 152 200 276 314 57 115 69 99 153 149 118 103 122 137 165 247 276 269 159 358 328 313 295 305 320 342 346 340 342 345 343 342 340 336 333 333 331 331 331 326 320 317 315 315 316 316 316 317 314 311 307 302 301 305 308 309 310 310 308 305 301 295 283 269 264 264 257 245 245 245 225 200 192 187 182 180 178 172 166 161 157 153 149 150
89 126 150 142 171 298 342 58 90 85 78 88 109 112 110 167 209 170 195 307 328 359 353 339 337 324 317 334 353 350 327 319 323 322 321 322 322 321 322 322 324 324 321 317 316 313 312 313 313 310 307 304 299 296 296 298 301 302 303 305 305 304 302 300 299 293 278 263 256 255 254 255 257 255 242 217 189 177 177 178 176 171 169 168 167 168 175
81 56 55 79 86 31 36 57 75 94 95 97 122 124 145 225 214 159 159 204 295 331 39 356 319 307 323 336 332 323 315 306 308 312 313 315 316 316 315 317 318 318 315 313 312 310 309 311 310 307 303 296 290 289 291 294 295 297 299 300 300 299 297 295 295 297 292 277 259 249 247 250 255 255 248 238 229 219 204 193 190 186 182 182 184 185 189
109 87 196 206 142 132 123 97 113 131 138 151 149 158 199 205 166 158 175 170 169 157 148 223 272 290 317 329 312 308 310 309 313 317 315 314 315 314 312 314 314 313 310 307 306 304 304 305 307 306 302 295 290 289 290 290 291 293 294 294 294 293 291 289 289 289 291 289 277 257 245 243 245 248 247 240 231 225 216 206 201 197 192 190 191 192 194
99 188 212 218 17 340 315 81 155 181 160 114 113 146 176 159 143 143 147 148 152 155 181 203 230 271 286 279 288 302 305 304 308 310 309 310 312 312 312 313 313 310 306 304 303 301 298 300 303 301 298 296 294 292 290 289 289 288 287 287 288 286 283 282 283 283 282 284 283 272 255 243 237 241 248 247 238 230 223 213 205 198 194 193 193 193 196
69 105 182 67 28 344 309 290 271 262 229 147 80 45 93 127 137 118 101 114 155 160 165 174 178 247 279 275 278 287 291 295 301 305 307 308 309 309 311 312 311 308 305 304 303 301 298 298 299 296 294 294 294 293 291 290 287 283 280 280 281 279 277 277 277 277 275 273 274 278 270 252 239 237 241 244 248 244 231 217 212 209 202 199 199 198 197
126 222 189 161 132 262 255 245 251 262 229 163 136 58 73 222 217 152 112 92 116 152 168 179 192 254 285 290 288 281 283 292 300 306 309 309 308 309 310 310 309 307 306 305 304 302 300 298 296 293 292 292 292 291 290 288 285 279 273 273 275 274 274 274 272 271 271 268 265 268 270 257 242 232 227 227 231 231 222 218 226 230 223 217 217 209 201
219 228 193 165 141 176 234 224 227 243 209 146 154 214 236 255 251 165 138 127 145 226 239 247 258 272 285 293 293 285 285 294 300 305 306 305 304 306 308 308 307 307 305 303 301 298 297 297 295 292 290 289 289 288 286 283 280 274 269 267 269 270 269 268 267 267 268 265 257 251 252 254 245 228 213 207 212 216 216 216 217 216 215 221 222 211 198
217 222 188 167 143 163 212 215 225 237 170 144 185 241 243 252 259 187 169 185 211 239 275 287 290 290 289 292 293 287 286 294 300 303 304 302 302 304 305 304 303 302 301 299 297 296 296 295 293 292 290 288 286 284 281 278 274 270 266 263 262 263 265 264 264 263 262 257 252 246 244 244 239 223 210 202 202 208 216 217 211 206 209 215 208 194 187
74 168 172 165 154 164 190 197 225 267 151 158 202 246 224 219 222 204 199 217 228 233 253 276 292 302 301 297 297 292 289 295 301 304 305 306 306 305 304 303 302 301 300 299 297 297 296 295 293 292 290 288 286 282 279 276 273 268 264 260 258 258 259 259 260 260 257 251 248 245 238 230 223 215 208 205 200 191 195 211 209 204 204 201 193 183 180
141 130 119 111 107 106 103 99 86 220 199 185 186 196 197 208 213 208 210 222 231 236 245 262 287 310 315 306 303 300 297 300 306 307 307 307 306 305 304 304 304 303 302 300 299 299 299 298 297 295 292 290 290 286 280 276 272 266 262 259 257 256 255 254 254 254 252 247 243 243 240 234 225 218 217 220 215 203 192 185 180 183 185 181 178 181 181
139 129 105 79 29 318 234 189 181 192 199 195 184 180 185 193 203 210 217 222 226 235 250 263 280 306 318 316 314 310 305 304 308 310 308 304 303 304 305 305 305 305 303 302 303 304 304 302 299 296 294 294 295 292 285 278 271 265 262 259 256 255 254 251 249 248 248 245 240 237 238 238 232 225 223 225 220 211 207 198 181 172 172 171 172 178 181
164 173 126 131 202 234 228 207 181 171 178 186 184 180 177 180 186 199 216 228 236 247 263 273 276 285 303 315 318 314 310 310 310 308 306 303 304 306 307 306 306 307 307 306 308 309 308 307 304 301 301 303 304 301 294 284 273 266 261 257 254 253 251 248 245 243 244 243 239 235 233 233 235 232 225 219 214 213 216 208 185 169 164 163 163 165 165
221 235 186 172 183 171 135 127 144 159 177 191 193 190 191 196 199 213 233 242 248 256 270 282 284 281 291 307 314 312 311 312 307 303 304 308 310 311 311 310 312 316 315 314 314 315 314 314 311 309 310 314 314 309 302 292 279 268 261 256 251 248 246 245 242 239 239 239 237 235 232 230 231 231 225 217 211 209 208 203 191 178 168 161 156 153 151
219 237 35 155 136 124 129 148 173 188 194 196 202 211 210 209 229 257 256 255 256 256 266 280 288 291 297 306 311 310 309 309 307 307 311 314 315 316 316 316 320 326 325 322 323 324 323 320 317 315 317 321 321 316 310 299 285 275 266 257 250 246 243 242 239 235 233 233 232 231 230 227 226 227 224 216 208 203 197 192 187 179 169 162 161 158 155
134 75 66 86 122 151 177 191 192 198 202 195 209 238 240 224 241 259 266 266 261 261 269 282 293 297 301 308 315 318 316 314 314 318 322 324 324 325 324 321 322 326 325 325 328 329 327 324 322 324 329 332 331 327 320 307 292 280 269 258 251 246 242 240 236 232 229 227 226 225 224 221 219 221 220 211 202 197 189 183 181 176 166 162 164 163 160
109 51 28 51 107 169 206 201 181 197 215 204 198 240 254 248 245 254 261 266 271 273 277 289 300 302 307 322 331 329 326 326 328 333 336 335 335 336 333 330 332 336 335 334 335 335 333 331 332 337 342 344 343 341 337 324 306 288 272 260 251 244 239 234 230 227 224 221 220 220 219 216 212 212 212 208 202 196 187 181 180 178 171 166 166 166 164
121 321 300 276 156 184 228 225 197 199 214 214 220 245 259 260 257 261 266 274 281 283 282 295 309 312 323 342 344 339 339 345 348 347 344 341 342 343 342 343 348 353 353 350 348 347 346 344 344 347 352 354 354 356 359 356 343 325 299 274 255 242 235 228 223 220 217 214 214 215 216 213 208 205 205 205 202 196 189 184 181 178 173 169 168 168 166
166 200 226 213 191 194 208 210 201 205 224 243 251 259 269 274 273 273 277 280 283 283 285 303 320 326 344 354 352 351 356 358 352 343 340 341 343 344 346 353 2 6 6 5 1 358 357 356 354 357 1 4 5 10 16 16 11 5 357 331 272 240 228 219 213 208 206 206 209 210 210 209 206 203 201 199 195 190 186 183 180 175 167 162 163 164 163
193 207 225 218 210 206 200 192 189 197 212 239 259 270 282 289 287 285 287 289 285 282 296 326 327 346 3 3 0 360 359 352 342 338 339 342 345 344 347 360 12 13 12 12 8 3 0 1 3 7 10 13 17 21 24 28 29 28 27 27 27 199 197 195 194 193 194 196 199 200 201 200 198 197 195 191 187 183 180 180 180 170 159 155 156 157 157
204 206 220 217 209 203 199 198 200 206 214 231 256 276 290 295 293 290 297 299 287 257 176 104 13 11 13 8 3 1 357 349 346 347 346 347 349 348 353 7 15 12 8 7 6 5 3 4 10 18 21 23 26 29 32 38 44 47 49 54 64 88 119 139 155 165 176 184 187 189 190 187 182 183 183 178 174 173 172 175 178 162 151 149 151 153 153
210 211 218 213 195 189 201 211 215 222 232 247 265 280 289 290 286 282 290 297 281 228 203 56 19 15 12 4 1 5 6 360 357 358 357 354 355 359 7 15 16 9 0 357 360 3 4 6 16 26 31 31 34 38 41 46 52 57 61 66 72 80 91 104 118 131 144 157 163 164 165 161 157 158 160 157 155 156 158 160 158 148 143 144 148 151 151
212 217 222 216 201 202 213 219 218 223 237 262 285 293 291 280 268 265 277 286 279 254 249 2 7 353 353 360 5 12 16 12 8 8 9 7 7 11 16 17 13 3 352 350 357 3 6 10 19 30 36 38 42 46 49 53 57 61 64 68 72 79 85 89 96 104 112 121 130 136 140 141 140 139 139 140 142 143 145 146 145 141 139 141 145 147 148
204 206 213 215 214 219 224 224 225 233 253 282 299 302 292 268 250 252 271 284 282 271 282 350 354 268 265 353 14 16 17 16 16 15 14 14 18 23 24 20 15 7 359 358 5 11 12 12 19 30 37 41 47 52 55 57 60 64 68 70 72 76 80 84 87 92 98 105 112 117 118 120 124 127 128 130 133 135 137 139 139 137 137 139 142 144 146
201 203 208 210 214 221 227 232 240 255 272 289 301 304 292 262 243 242 258 275 282 284 286 303 295 243 225 176 43 27 21 20 22 22 22 23 26 27 23 18 17 16 13 13 17 19 15 14 19 29 36 40 46 53 58 60 62 65 70 75 77 77 80 83 85 88 91 96 100 104 106 109 113 117 120 122 125 127 129 131 132 133 136 139 143 146 149
212 211 210 209 212 219 226 234 248 262 273 286 302 307 288 249 237 242 252 264 274 276 274 284 304 296 256 182 67 34 23 22 24 28 29 27 24 18 9 5 10 15 16 18 19 19 17 17 22 29 35 40 44 49 56 63 67 69 72 76 80 82 84 85 86 88 91 94 95 97 102 106 107 109 112 116 119 121 125 128 131 134 138 143 147 151 155
216 214 211 212 216 221 225 233 247 261 268 278 297 306 278 233 231 245 253 256 259 253 249 265 301 315 304 278 284 1 10 12 20 28 32 31 26 15 2 0 8 15 17 18 20 21 20 23 26 30 35 41 45 48 54 63 71 75 77 80 83 86 89 90 91 93 95 97 99 101 104 106 108 108 111 115 118 122 127 131 134 139 144 148 151 154 154
216 213 212 215 219 223 227 233 242 254 261 270 288 295 259 223 224 238 245 246 247 239 232 238 266 296 296 275 253 271 346 355 4 17 30 40 42 31 13 5 9 15 18 21 25 28 29 30 32 33 35 41 47 52 58 65 72 77 81 84 86 90 93 95 98 100 102 102 103 106 109 112 113 115 116 118 121 125 130 133 135 138 142 145 146 148 149
216 212 216 222 224 226 229 233 237 245 254 264 280 281 238 216 218 231 241 245 247 241 233 233 241 256 269 260 241 229 6 8 4 5 15 32 41 38 27 15 13 17 22 26 31 35 37 39 39 38 39 44 50 55 62 70 75 78 81 85 87 90 92 94 97 100 103 104 106 109 112 115 118 120 122 123 125 127 129 131 132 135 138 140 142 144 145
219 217 222 227 227 226 228 232 236 241 247 255 270 269 233 216 214 223 233 242 247 245 238 236 237 242 250 247 227 188 60 31 22 23 26 25 21 21 23 22 18 19 26 32 37 42 44 45 45 46 48 52 56 60 67 73 77 79 83 86 87 88 90 92 94 96 100 102 105 109 112 115 117 119 121 123 124 125 126 126 128 131 134 136 138 141 143
225 224 225 226 229 232 234 236 239 243 245 246 252 250 231 217 213 215 222 230 237 244 247 244 242 244 252 250 225 183 117 73 54 43 39 36 22 14 17 20 19 22 31 39 45 48 50 50 52 55 58 61 64 68 72 75 78 79 82 84 86 88 90 92 94 96 98 101 103 105 108 110 112 114 116 118 119 120 122 123 124 126 128 132 135 138 142
224 223 224 228 234 239 241 240 239 238 234 227 231 239 235 222 214 213 216 219 222 225 237 242 240 240 245 249 243 228 201 125 94 71 44 35 27 13 10 16 21 27 37 45 51 54 56 56 58 62 66 69 72 74 75 75 76 78 79 81 84 87 89 91 93 94 96 98 100 101 103 104 105 107 109 111 112 115 118 119 119 119 122 126 131 134 139
219 219 225 232 237 241 240 233 225 223 223 225 233 243 246 232 220 216 213 212 214 217 221 229 233 233 233 238 244 242 231 199 126 95 69 38 22 6 6 17 26 35 46 56 60 61 61 62 65 68 72 74 76 77 77 76 75 77 79 81 84 87 88 90 92 94 95 96 98 98 98 99 100 102 103 105 106 109 113 115 115 118 122 125 128 133 140
221 222 227 232 235 234 228 218 213 221 228 232 236 243 247 236 220 215 212 211 213 216 218 222 228 228 225 229 234 229 221 223 232 216 158 54 18 5 2 11 21 34 52 64 65 64 64 66 70 73 77 80 80 80 80 79 78 78 79 82 85 87 89 90 92 94 95 96 97 96 96 97 98 98 99 101 103 103 104 103 104 106 109 111 113 117 121
223 221 222 225 227 227 223 216 217 226 232 233 234 236 235 220 209 211 214 213 214 217 221 225 229 227 222 225 228 222 216 222 233 226 203 221 350 354 355 359 11 32 56 71 73 69 66 68 72 76 80 83 84 84 83 83 82 82 85 88 90 91 92 93 95 96 97 98 99 99 99 99 99 99 99 99 99 100 101 101 101 102 104 106 108 110 110
224 220 220 225 230 232 230 229 231 235 237 235 232 228 222 215 216 219 218 213 211 214 218 221 224 226 224 221 221 219 216 217 221 219 214 231 286 315 328 339 1 31 59 78 83 77 72 74 78 82 84 86 87 86 87 88 89 89 91 93 95 94 94 93 94 96 99 101 101 100 99 98 99 100 100 101 101 102 103 103 104 104 105 106 107 107 105
231 229 228 229 232 235 236 237 238 238 237 235 231 225 220 219 220 220 217 214 214 216 218 220 224 228 228 224 220 218 215 212 213 215 214 213 226 248 253 234 257 53 76 92 96 90 84 85 89 92 92 91 88 87 89 93 95 96 96 97 97 97 94 91 90 92 95 97 98 97 96 95 95 96 97 99 101 104 105 106 106 105 104 104 104 103 102